Location: Anare
(10.6236°N, 66.6506°W)
Time: 16:58:55
(UTC+00:00)

YAOGAN 1 - Pass Details

Date: 18 April 2024
Orbit: 612 x 614 km, 97.8° (Epoch: 18 May)

Event Time Altitude Azimuth Distance (km) Brightness Sun altitude
Rises 23:48:05 0° 179° (S) 2,873 5.8 -17.6°
Reaches altitude 10° 23:50:19 10° 184° (S) 1,968 5.0 -18.2°
Maximum altitude 23:54:27 49° 259° (W) 795 3.4 -19.1°
Drops below altitude 10° 23:58:36 10° 334° (NNW) 1,968 5.7 -20.1°
Sets 00:00:50 0° 340° (NNW) 2,872 6.5 -20.6°
